Temperature
23 20 20 20 20 21 20 20 20 21 22 21 20 19 19 19 20 20 20 19 19 18 18 17 17 16 16 16 15 15 14 14 13 13 13 13 13 13 13 13 13 13 13 13
20 20 21 21 21 21 21 20 21 21 22 21 20 20 19 19 19 20 20 19 19 18 17 17 17 16 16 15 15 14 14 13 13 13 13 13 12 12 12 13 13 13 13 13
20 21 22 22 22 21 21 20 21 21 22 21 21 19 19 19 20 20 20 20 19 18 18 17 17 16 16 15 15 14 14 13 13 13 13 13 12 12 12 12 13 13 13 13
20 22 22 22 22 21 21 22 22 22 20 19 20 18 18 19 19 19 19 19 19 18 18 17 17 16 16 15 15 14 13 13 13 13 12 12 12 12 12 12 12 12 12 12
21 22 22 22 22 22 21 22 22 22 20 19 19 17 17 18 18 18 18 19 19 19 18 17 17 16 16 15 15 14 13 13 13 13 12 12 12 12 12 12 12 12 12 12
21 22 22 22 23 23 22 21 19 17 17 18 19 18 18 17 18 18 18 19 19 18 18 17 17 16 16 15 15 14 13 13 13 13 12 12 12 12 12 12 12 12 12 12
21 22 23 23 23 23 21 18 17 18 16 18 19 18 17 18 19 18 18 19 19 18 18 17 17 16 16 15 15 14 14 13 13 13 12 12 12 12 12 12 12 12 12 12
20 21 23 23 22 22 21 18 18 18 18 17 19 19 18 19 19 20 20 19 19 18 18 18 17 16 16 15 15 14 14 13 13 13 12 12 12 12 12 12 12 12 12 12
20 21 23 24 23 22 22 19 17 17 18 18 18 19 19 19 19 19 19 19 19 19 18 18 17 16 16 15 15 14 14 13 13 13 12 12 12 12 12 12 11 11 12 12
20 21 22 23 23 23 21 19 16 17 18 18 19 19 17 18 18 18 18 18 19 19 18 18 17 17 16 16 15 14 14 14 13 13 13 12 12 12 12 12 12 12 12 12
20 20 21 22 22 22 22 21 17 15 15 17 18 18 18 18 18 18 18 19 19 19 18 18 17 17 16 16 15 15 14 14 13 13 13 13 12 12 12 12 12 12 12 12
20 17 18 20 21 21 21 21 17 17 18 16 15 17 19 18 18 19 19 20 20 19 19 18 18 17 16 16 15 15 15 14 14 13 13 13 12 12 12 12 12 12 12 12
20 18 18 19 19 21 22 21 18 16 15 15 16 18 19 18 19 20 20 20 20 19 19 18 18 17 17 16 16 15 15 14 14 14 13 13 13 13 12 12 12 12 12 12
19 18 18 19 19 19 21 21 20 17 16 17 17 18 20 19 18 19 20 20 20 19 19 18 18 17 17 16 16 16 15 15 14 14 14 13 13 13 12 12 12 12 12 12
19 19 20 20 20 20 20 21 20 19 17 17 18 19 19 18 18 20 20 20 20 19 19 19 18 18 17 17 16 16 15 15 15 14 14 13 13 13 13 12 12 12 12 12
18 20 21 21 22 21 21 20 20 19 19 18 19 19 19 20 20 20 20 20 20 20 19 19 19 18 18 17 17 16 16 15 15 14 14 14 13 13 13 13 12 12 12 12
18 19 19 18 20 21 20 20 20 20 20 19 19 19 19 19 19 20 21 20 20 20 20 19 19 18 18 17 17 17 16 16 15 15 14 14 14 13 13 13 13 12 12 12
18 17 16 17 20 20 19 20 20 20 20 19 20 19 19 20 22 22 22 21 21 20 20 19 19 18 18 18 17 17 16 16 15 15 15 14 14 14 13 13 13 13 13 12
17 17 16 16 18 19 20 21 21 20 20 20 20 20 21 21 20 20 21 21 21 20 20 19 19 18 18 18 17 17 16 16 16 15 15 15 14 14 14 14 13 13 13 13
17 16 16 16 19 19 20 21 22 21 21 21 20 19 20 19 17 18 21 21 20 20 19 19 19 18 18 17 17 17 17 16 16 16 15 15 15 14 14 14 14 14 13 13
18 17 16 16 17 17 19 21 22 20 20 22 22 22 21 20 20 22 21 21 20 20 19 19 18 18 18 17 17 17 16 16 16 16 15 15 15 15 14 14 14 14 14 13
17 16 16 15 17 18 20 21 20 20 22 23 23 23 23 22 22 21 21 20 20 19 19 18 18 18 18 17 17 17 16 16 16 16 15 15 15 15 15 14 14 14 14 14
16 17 16 16 18 20 22 23 24 24 23 23 23 23 23 22 21 21 20 20 20 19 19 18 18 18 17 17 17 17 16 16 16 15 15 15 15 15 15 14 14 14 14 14
17 17 16 17 17 20 22 23 24 24 24 24 24 23 23 22 21 21 20 20 19 19 19 18 18 17 17 17 17 16 16 16 16 15 15 15 15 15 15 14 14 14 14 14
18 19 17 17 18 20 21 23 24 24 24 23 23 23 22 22 21 21 20 20 19 19 18 18 18 17 17 16 16 16 16 16 15 15 15 15 14 14 14 14 14 14 14 13
17 18 17 18 20 18 22 24 24 23 23 23 23 22 22 22 21 21 20 19 19 18 18 18 17 17 16 16 16 16 15 15 15 15 14 14 14 14 14 14 14 13 13 13
Wind_Speed
4 5 4 7 8 7 6 3 2 5 7 7 8 8 9 9 7 7 6 6 7 8 6 5 6 6 5 5 5 3 3 3 3 3 3 3 4 4 4 4 5 5 5 5
3 4 7 8 8 7 5 2 1 3 4 7 6 6 6 9 9 9 9 9 9 8 6 5 5 5 5 4 4 3 3 2 2 1 2 2 3 3 3 4 5 6 5 5
7 5 7 6 5 5 2 4 5 5 1 1 2 5 1 3 5 5 6 8 10 11 9 7 6 5 5 4 3 3 2 1 2 2 2 3 3 3 4 5 5 5 6 5
3 3 5 5 5 6 4 7 6 4 3 3 3 1 4 4 4 6 6 7 8 9 8 7 7 6 5 4 3 3 2 0 1 2 2 3 2 3 4 4 4 6 5 5
3 5 5 5 6 7 7 6 3 2 3 2 1 4 5 2 5 6 7 8 8 9 9 9 8 7 5 4 3 3 1 1 2 2 2 2 2 3 3 4 5 5 5 5
2 3 5 7 4 5 4 5 6 6 5 2 4 5 5 5 8 7 6 8 9 8 8 7 7 6 4 3 3 2 1 1 2 2 2 1 2 3 4 5 5 5 4 4
2 1 1 4 4 2 5 6 5 5 4 5 2 4 6 6 6 8 9 9 9 9 8 8 7 6 5 4 3 3 2 1 2 2 2 2 2 2 3 3 4 4 4 4
4 2 3 3 5 5 4 8 7 4 4 5 3 3 5 3 4 6 8 8 9 8 8 8 8 7 6 6 5 3 3 1 2 2 2 2 2 1 2 3 3 3 3 4
5 3 2 1 3 6 5 4 7 6 2 1 3 2 4 0 3 5 6 8 9 9 9 8 8 7 6 6 5 5 4 2 1 1 1 1 2 2 3 3 3 3 4 4
6 4 1 1 5 4 6 7 6 4 2 1 2 3 5 8 8 8 8 9 9 8 8 8 7 7 6 5 5 4 4 3 2 1 0 1 2 3 3 3 4 4 5 5
4 5 1 2 2 4 2 3 5 4 5 5 3 6 7 10 10 9 10 9 9 9 9 8 7 7 6 5 5 5 4 3 2 2 1 1 2 3 3 3 3 4 4 5
4 5 1 4 5 4 6 5 6 4 2 4 4 7 6 9 9 9 9 8 8 9 8 8 8 6 5 5 5 5 5 4 4 3 1 0 1 2 3 3 4 4 4 5
5 6 4 5 6 3 2 5 6 6 5 4 4 6 3 4 6 7 8 8 8 8 8 7 7 7 7 7 6 6 6 5 4 3 2 0 1 1 2 3 3 4 4 5
5 5 6 7 7 6 5 5 6 7 4 4 6 6 4 6 7 7 8 9 9 9 9 8 7 7 7 7 6 6 6 6 5 4 3 2 1 1 1 2 3 3 3 4
5 3 5 7 7 6 7 8 9 8 9 8 8 7 9 10 10 10 9 9 8 8 8 9 8 8 7 6 6 6 6 6 5 5 4 4 3 2 1 2 2 3 3 4
4 3 0 3 4 5 5 9 10 9 8 8 6 7 8 7 6 6 8 9 9 8 9 9 9 8 7 7 7 7 7 6 5 6 5 4 3 2 2 2 2 2 4 4
3 4 3 4 5 2 6 10 12 8 8 9 10 10 6 6 9 10 10 9 10 9 8 8 9 9 8 8 8 8 8 6 6 6 5 5 4 3 3 2 2 3 3 3
7 6 4 1 1 5 10 7 9 10 9 9 8 8 10 10 9 8 9 10 9 8 8 8 7 7 7 7 7 7 6 6 6 5 5 5 5 4 3 3 3 4 3 3
6 7 4 3 3 7 9 5 7 8 8 9 10 9 8 6 5 1 5 8 9 8 7 6 6 6 6 6 6 6 5 5 5 5 6 6 6 5 4 4 5 4 3 3
5 6 6 4 3 6 9 7 3 6 4 6 10 11 9 9 5 5 6 7 7 7 6 6 5 5 5 5 6 7 5 5 6 6 6 6 6 6 6 6 5 4 3 4
2 2 4 5 5 8 9 4 5 5 8 5 9 10 11 10 8 6 7 7 7 7 7 7 7 5 5 6 7 6 5 5 7 6 5 5 5 6 6 5 4 4 4 4
9 6 6 6 5 9 7 5 7 9 4 4 8 9 9 8 7 8 9 8 8 7 7 7 6 5 3 5 6 5 4 5 5 5 5 5 5 5 4 5 5 4 4 4
8 10 8 10 10 9 7 9 8 7 6 7 8 8 10 10 9 9 8 8 7 7 7 5 6 5 2 3 5 4 3 3 3 3 4 5 5 5 5 5 5 4 3 3
5 3 4 5 8 8 7 6 5 8 8 8 8 10 11 10 10 10 9 8 7 6 6 6 7 6 3 1 2 1 1 1 2 2 3 3 4 5 4 4 4 4 4 4
7 2 3 5 7 4 6 8 8 7 7 8 8 9 11 12 10 10 9 8 8 6 5 6 7 6 4 4 4 3 2 2 2 0 2 3 3 3 4 4 4 5 5 5
6 7 6 8 9 8 10 11 9 9 10 10 10 9 9 11 11 9 9 8 7 7 7 7 7 6 5 5 5 4 3 3 3 3 3 2 2 3 3 3 4 5 5 7
Wind_Direction
166 126 176 191 174 167 160 170 224 236 203 185 219 228 208 201 191 188 182 164 152 157 163 149 141 132 112 88 83 72 60 26 18 6 354 345 338 330 330 329 334 337 338 339
89 190 196 172 163 149 149 144 226 256 213 195 223 248 219 193 196 189 179 164 154 151 152 150 142 127 114 107 96 77 64 41 14 345 314 291 296 301 303 319 332 336 333 334
162 204 171 158 149 134 149 177 201 213 270 284 142 344 221 198 189 188 172 159 156 161 165 163 148 139 130 124 123 101 93 63 12 355 347 345 349 339 342 338 335 326 328 328
183 211 165 157 172 157 202 211 199 180 113 279 151 204 268 208 188 189 176 160 162 163 163 161 154 151 152 161 148 128 126 88 345 6 13 2 354 331 308 308 314 323 329 331
199 180 155 170 198 170 201 208 187 152 134 343 17 138 271 185 201 213 197 180 172 171 165 163 162 164 165 167 157 152 154 280 326 358 10 7 343 316 314 323 334 336 332 332
198 190 165 182 187 170 158 66 44 48 68 329 237 149 235 219 208 198 195 186 178 174 165 160 162 161 163 167 163 155 153 285 322 350 8 12 346 342 347 343 341 337 331 330
35 357 183 145 107 44 85 80 33 7 11 264 250 140 232 237 200 179 180 184 181 172 162 162 165 171 177 183 186 177 164 263 306 336 349 330 325 334 335 325 331 333 332 325
130 260 240 174 158 167 158 132 149 185 226 283 344 200 251 250 177 163 166 173 177 179 176 176 180 181 188 192 187 184 182 221 287 317 318 314 328 323 318 317 318 322 316 307
152 233 317 88 120 133 127 140 164 141 186 271 303 328 327 174 179 178 180 181 189 190 189 186 186 186 193 194 194 189 181 194 257 287 322 336 346 339 329 329 331 327 326 328
139 150 283 26 56 43 141 142 95 112 142 312 306 235 225 217 219 217 206 201 204 197 194 189 188 192 196 195 193 186 176 183 209 237 290 13 336 329 333 345 348 344 343 349
117 124 355 35 182 206 143 115 108 118 150 153 229 261 224 204 206 204 211 207 199 193 191 192 195 198 195 187 182 179 180 179 197 216 236 15 337 340 355 353 341 345 350 356
121 114 143 271 284 202 168 167 142 145 207 164 181 262 262 197 199 193 200 201 196 192 190 192 192 192 191 192 191 189 190 191 206 206 187 354 349 5 9 351 342 351 357 359
122 108 78 351 337 343 179 170 146 132 123 154 175 261 291 204 205 201 193 193 191 189 188 189 192 196 201 203 201 197 198 202 204 189 171 119 2 6 353 334 338 352 358 359
115 116 158 191 219 205 211 206 162 131 157 207 217 235 239 210 212 215 205 195 191 192 189 188 198 210 213 210 204 201 206 204 193 184 180 195 235 248 285 316 335 341 348 355
104 143 206 228 231 196 206 206 188 177 185 187 222 217 227 214 209 208 201 195 192 197 198 197 203 212 215 212 210 204 206 203 189 182 192 212 222 227 270 325 326 329 343 346
107 146 185 293 254 219 221 217 203 203 199 205 213 240 235 212 191 190 191 188 193 201 202 202 203 204 206 204 203 200 205 203 185 186 203 212 214 224 254 283 302 324 336 336
137 142 132 268 294 343 264 223 203 205 205 189 211 225 199 180 193 195 194 191 197 200 199 196 199 200 202 200 196 196 202 193 185 195 207 208 208 219 241 259 288 306 311 316
144 134 139 216 50 234 246 242 195 201 217 197 196 198 189 193 198 196 185 181 188 190 189 193 195 198 201 198 196 193 185 179 185 198 209 212 209 219 233 246 268 279 283 287
146 139 132 141 222 276 288 263 179 178 236 208 191 192 190 160 106 332 201 176 181 183 181 186 185 182 181 184 180 160 165 175 184 202 213 216 211 216 225 242 256 261 267 279
90 102 123 135 190 249 258 270 176 115 258 235 184 179 167 135 148 234 212 167 163 160 160 158 151 144 156 173 156 145 160 172 198 212 215 215 211 212 224 236 246 248 247 263
132 102 147 171 215 264 258 256 101 143 239 235 179 173 165 175 194 192 169 158 156 154 155 146 137 142 167 166 150 150 163 199 217 212 208 213 218 221 228 238 243 249 259 279
181 176 189 162 194 254 242 158 180 214 226 172 163 165 164 171 160 153 156 157 156 153 152 144 138 146 158 155 149 155 195 228 221 207 213 229 236 237 233 232 251 253 256 276
199 193 187 187 211 234 213 203 212 179 175 176 163 164 152 150 160 162 163 162 162 160 159 149 142 135 124 137 142 155 230 229 200 205 236 254 263 261 252 239 250 259 253 254
266 186 165 234 259 253 234 216 194 183 183 181 169 162 157 160 165 164 162 163 160 156 153 143 133 132 129 110 115 168 257 187 154 197 260 278 287 294 288 265 249 247 252 253
244 207 207 251 271 289 271 233 208 189 171 161 160 165 166 160 164 166 165 164 161 157 151 139 137 134 119 89 66 33 31 97 109 27 328 318 308 304 307 299 265 249 245 235
221 201 203 237 234 208 233 231 209 185 184 177 167 165 168 165 165 162 162 161 154 149 141 132 129 124 112 88 63 31 29 73 87 59 14 351 335 329 325 320 321 303 290 311
Height
1501 1509 1515 1515 1514 1517 1522 1527 1529 1523 1516 1520 1523 1522 1521 1522 1523 1524 1525 1525 1526 1527 1528 1529 1528 1527 1526 1524 1522 1520 1518 1516 1514 1511 1508 1506 1504 1502 1500 1499 1497 1496 1494 1493
1506 1510 1507 1507 1510 1514 1519 1525 1525 1519 1514 1518 1522 1521 1518 1519 1520 1521 1522 1523 1524 1526 1527 1527 1527 1526 1524 1523 1521 1520 1518 1515 1513 1510 1508 1506 1503 1501 1499 1497 1496 1494 1492 1491
1507 1506 1503 1507 1511 1516 1520 1523 1522 1521 1516 1517 1521 1527 1522 1519 1520 1521 1522 1522 1523 1524 1525 1525 1525 1524 1523 1522 1521 1519 1517 1515 1513 1510 1508 1505 1503 1501 1498 1496 1494 1493 1491 1490
1505 1502 1504 1508 1511 1514 1521 1513 1513 1515 1525 1531 1526 1541 1528 1522 1521 1520 1521 1521 1522 1523 1523 1523 1523 1523 1522 1521 1520 1518 1516 1514 1512 1510 1507 1505 1502 1500 1498 1495 1493 1492 1490 1489
1505 1502 1505 1509 1508 1508 1512 1507 1511 1514 1521 1530 1529 1539 1535 1523 1524 1521 1519 1520 1520 1521 1521 1522 1522 1522 1521 1520 1519 1517 1516 1514 1512 1509 1507 1505 1502 1500 1497 1495 1493 1491 1489 1488
1502 1500 1501 1503 1502 1503 1505 1511 1517 1525 1532 1541 1528 1537 1536 1527 1520 1517 1517 1518 1519 1520 1520 1521 1521 1521 1520 1520 1518 1517 1515 1513 1511 1509 1507 1504 1502 1499 1497 1495 1492 1490 1488 1487
1507 1502 1499 1499 1504 1505 1509 1526 1543 1543 1551 1545 1526 1531 1531 1516 1512 1513 1514 1516 1517 1518 1519 1519 1519 1520 1519 1518 1518 1516 1515 1513 1511 1509 1507 1504 1502 1500 1497 1495 1492 1490 1488 1486
1516 1516 1502 1498 1502 1508 1511 1523 1543 1551 1551 1544 1528 1531 1524 1512 1511 1511 1513 1515 1516 1517 1517 1518 1518 1518 1518 1517 1517 1516 1514 1512 1511 1508 1506 1504 1502 1500 1497 1495 1492 1490 1488 1486
1514 1514 1499 1497 1497 1501 1510 1519 1522 1537 1538 1544 1538 1528 1519 1513 1513 1513 1513 1514 1514 1515 1516 1516 1517 1517 1517 1516 1516 1515 1513 1512 1510 1508 1506 1504 1502 1500 1498 1495 1493 1490 1488 1486
1502 1511 1503 1499 1498 1501 1505 1513 1527 1535 1544 1549 1537 1532 1531 1518 1515 1513 1512 1512 1512 1513 1514 1515 1515 1515 1515 1515 1515 1514 1513 1511 1510 1508 1506 1504 1502 1500 1498 1496 1493 1491 1489 1486
1498 1511 1511 1505 1506 1508 1508 1512 1524 1536 1540 1549 1546 1537 1512 1510 1508 1509 1508 1509 1510 1511 1512 1513 1514 1514 1514 1514 1514 1513 1512 1511 1510 1508 1506 1504 1503 1501 1498 1496 1494 1491 1489 1486
1498 1512 1519 1512 1503 1500 1504 1509 1520 1533 1535 1539 1545 1534 1503 1503 1503 1504 1505 1506 1508 1509 1510 1511 1512 1512 1513 1513 1513 1512 1511 1510 1509 1508 1506 1504 1503 1501 1499 1496 1494 1492 1490 1487
1497 1512 1527 1525 1518 1506 1504 1505 1512 1522 1532 1539 1542 1527 1502 1502 1502 1503 1503 1504 1506 1507 1508 1509 1510 1511 1511 1511 1511 1511 1510 1510 1509 1507 1506 1504 1503 1501 1499 1496 1494 1492 1490 1488
1494 1508 1519 1523 1518 1509 1506 1504 1506 1517 1530 1530 1526 1517 1504 1502 1502 1501 1502 1502 1504 1505 1506 1507 1508 1509 1509 1510 1510 1510 1509 1509 1508 1507 1506 1504 1502 1501 1499 1497 1495 1493 1491 1489
1493 1505 1504 1504 1500 1501 1501 1501 1503 1509 1514 1520 1513 1508 1502 1498 1497 1498 1499 1500 1502 1503 1504 1505 1506 1507 1507 1508 1508 1508 1508 1508 1507 1506 1505 1504 1502 1501 1499 1497 1495 1493 1491 1489
1494 1501 1501 1501 1496 1496 1498 1497 1499 1500 1502 1504 1504 1502 1493 1492 1494 1495 1497 1498 1499 1500 1501 1502 1503 1504 1505 1506 1506 1507 1507 1506 1506 1505 1504 1503 1502 1500 1499 1497 1495 1493 1491 1489
1497 1501 1508 1512 1502 1499 1505 1494 1494 1494 1492 1495 1500 1496 1490 1492 1492 1492 1493 1495 1496 1497 1499 1500 1501 1502 1503 1504 1505 1505 1505 1505 1505 1504 1504 1503 1501 1500 1498 1497 1495 1493 1491 1489
1495 1503 1512 1514 1508 1516 1497 1478 1480 1484 1483 1483 1484 1484 1485 1486 1488 1489 1491 1492 1493 1495 1496 1497 1499 1500 1501 1502 1503 1504 1504 1504 1504 1503 1502 1502 1500 1499 1498 1496 1495 1493 1491 1489
1487 1498 1510 1517 1516 1508 1489 1476 1476 1482 1483 1477 1479 1480 1482 1484 1487 1489 1489 1490 1491 1493 1494 1496 1497 1498 1499 1500 1501 1502 1502 1502 1502 1502 1501 1500 1499 1498 1497 1496 1494 1492 1491 1489
1489 1493 1506 1515 1513 1513 1490 1472 1469 1476 1483 1472 1473 1476 1480 1483 1491 1488 1487 1488 1490 1491 1493 1494 1495 1496 1498 1499 1500 1500 1500 1501 1500 1500 1500 1499 1498 1497 1496 1495 1493 1492 1490 1489
1495 1499 1506 1511 1511 1501 1478 1471 1472 1490 1484 1468 1469 1472 1475 1478 1480 1482 1484 1486 1488 1490 1491 1493 1494 1495 1496 1497 1498 1498 1499 1499 1499 1498 1498 1497 1496 1495 1494 1493 1492 1491 1489 1488
1494 1500 1504 1509 1510 1501 1469 1470 1474 1473 1466 1466 1467 1469 1472 1474 1477 1480 1482 1484 1486 1488 1490 1491 1492 1493 1494 1495 1496 1496 1496 1497 1497 1496 1496 1495 1495 1494 1493 1491 1490 1489 1487 1486
1485 1483 1485 1487 1484 1467 1463 1463 1463 1464 1464 1465 1466 1468 1471 1473 1476 1478 1481 1483 1485 1486 1488 1489 1490 1491 1492 1493 1494 1494 1494 1494 1494 1494 1493 1493 1492 1491 1490 1489 1488 1487 1485 1484
1476 1472 1476 1476 1469 1462 1460 1460 1461 1462 1462 1463 1465 1467 1469 1471 1473 1476 1478 1480 1482 1484 1486 1487 1488 1489 1490 1491 1491 1491 1492 1492 1491 1491 1491 1490 1489 1488 1487 1486 1485 1483 1482 1481
1471 1469 1472 1471 1464 1460 1459 1458 1458 1459 1461 1462 1463 1465 1467 1469 1471 1473 1475 1478 1480 1482 1483 1485 1486 1487 1488 1488 1488 1489 1489 1489 1488 1488 1487 1487 1486 1485 1483 1482 1482 1480 1479 1478
1463 1465 1468 1466 1458 1458 1455 1454 1456 1456 1457 1459 1460 1462 1464 1466 1468 1470 1473 1475 1477 1479 1481 1482 1483 1484 1485 1485 1486 1486 1486 1486 1485 1485 1484 1483 1482 1481 1480 1479 1478 1477 1476 1474